Regional Weather Roundup
Issued by NWS

Home | Current Version | Previous Version | Text Only | Print | Product List | Glossary On
Versions: 1 2 3 4 5 6 7 8 9 10 11 12 13 14 15 16 17 18 19 20 21 22 23 24 25 26 27 28 29 30 31 32 33 34 35 36 37 38 39 40 41 42 43 44 45 46 47 48 49 50
372
ASUS43 KLSX 060107
RWRMO

WEATHER SUMMARY FOR MISSOURI
NATIONAL WEATHER SERVICE SPRINGFIELD MO
700 PM CST MON DEC 05 2016

NOTE: "FAIR" INDICATES FEW OR NO CLOUDS BELOW 12,000 FEET WITH NO
       SIGNIFICANT WEATHER AND/OR OBSTRUCTIONS TO VISIBILITY.
       CURRENT SKY AND/OR WEATHER CONDITIONS ARE NOT AVAILABLE FOR
       CHILLICOTHE AND FARMINGTON.

MOZ001>031-035>038-043-044-053-054-060200-
...NORTHERN AND WESTERN MISSOURI...

CITY           SKY/WX    TMP DP  RH WIND       PRES   REMARKS
KANSAS CTY INT CLEAR     41  32  70 SE13      29.73F
KANSAS C DTWN  CLEAR     45  33  63 S10G16    29.75S
LEE`S SUMMIT   CLEAR     41  33  73 SE7       29.76S
ST JOSEPH      CLEAR     41  33  73 SE5       29.72S
CHILLICOTHE      N/A     41  34  76 SE9       29.79S
KIRKSVILLE     CLOUDY    37  37 100 SE13      29.81F FOG     WCI  29

$$
MOZ066>068-077>081-088>096-101>105-060200-
...SOUTHWEST MISSOURI...

CITY           SKY/WX    TMP DP  RH WIND       PRES   REMARKS
SPRINGFIELD    CLEAR     39  33  79 SE9       29.75S
JOPLIN         CLEAR     40  37  89 E5        29.75F
BRANSON        CLOUDY    41  37  87 E10       29.76S

$$
MOZ032>034-039>042-045>050-055>058-069>072-060200-
...CENTRAL MISSOURI...

CITY           SKY/WX    TMP DP  RH WIND       PRES   REMARKS
COLUMBIA       CLEAR     36  35  96 E8        29.80S WCI  30
JEFFERSON CITY PTCLDY    40  36  86 E5        29.81S
ROLLA          PTCLDY    39  34  82 E6        29.78F
SEDALIA        CLOUDY    39  34  82 E5        29.80S
WHITEMAN AFB   PTCLDY    37  37  99 SE7       29.77S
WARRENSBURG    CLOUDY    37  32  81 E8        29.77F
OSAGE BEACH    CLEAR     39  32  76 E5        29.80R

$$
MOZ051-052-059>065-060200-
...EAST CENTRAL MISSOURI...

CITY           SKY/WX    TMP DP  RH WIND       PRES   REMARKS
ST LOUIS INTL  MOCLDY    40  34  79 E12       29.86S
SPIRIT OF STL  MOCLDY    40  36  86 E7        29.85F
ST CHARLES     PTCLDY    38  35  89 E9        29.87S

$$
MOZ072>076-082>087-097>100-106>115-060200-
...SOUTH CENTRAL AND SOUTHEAST MISSOURI...

CITY           SKY/WX    TMP DP  RH WIND       PRES   REMARKS
CAPE GIRARDEAU CLOUDY    40  35  83 E8        29.86F
FARMINGTON     CLOUDY    39  35  86 E3        29.83F
POPLAR BLUFF   CLOUDY    42  38  85 E9        29.84F
WEST PLAINS    CLOUDY    40  36  86 SE8       29.80R

$$



USA.gov is the U.S. government's official web portal to all federal, state and local government web resources and services.